Location: Bandys
(35.4750°N, 81.0830°W)
Time: 07:23:16
(UTC-04:00)

Daily predictions for brighter satellites

Satellite Brightness Start Highest point End
(mag) Time Altitude Azimuth Time Altitude Azimuth Time Altitude Azimuth
SL-16 R/B 2.3 21:02:09 10° NNW 21:07:50 70° ENE 21:13:28 10° SSE
DELTA 2 R/B (1) 4.0 21:04:49 10° WNW 21:10:20 63° N 21:15:51 10° E
USA 186 1.3 21:13:06 10° S 21:15:27 69° W 21:17:54 10° NNW
GPS 2-04 Rocket1 4.1 21:12:39 10° W 21:16:31 30° SSW 21:20:20 10° SE
OAO 2 Rocket 4.2 21:12:14 10° SW 21:16:57 33° SSE 21:21:40 10° E
Cosmos 1908 4.3 21:16:57 10° NNE 21:20:21 28° ENE 21:23:47 10° SE
Cosmos 2266 Rocket 4.3 21:17:36 10° SSE 21:23:35 47° E 21:29:29 10° NNE
Cosmos 1151 Rocket 4.0 21:20:30 10° NNE 21:24:19 30° ENE 21:28:08 10° SE
Cosmos 1674 3.2 21:22:09 10° SSE 21:25:44 39° E 21:29:21 10° NNE
Cosmos 2292 4.4 21:22:57 10° N 21:25:57 57° E 21:29:22 10° SSE
ALOS 3.0 21:23:18 10° S 21:27:52 55° W 21:32:27 10° NNW
Cosmos 371 Rocket 3.6 21:23:33 10° NNW 21:28:19 68° WSW 21:33:04 10° S
Cosmos 405 4.0 21:25:35 10° NNE 21:28:48 30° ENE 21:31:43 12° SE
Cosmos 1553 Rocket 4.1 21:24:15 10° N 21:30:41 85° E 21:36:58 10° S
H-2A R/B 3.8 21:32:06 10° SSW 21:34:56 22° SE 21:42:13 10° E
Cosmos 1680 Rocket 4.3 21:30:13 10° N 21:35:02 36° ENE 21:39:11 13° SE
Cosmos 1538 Rocket 4.3 21:30:10 10° NNW 21:35:30 73° WSW 21:40:51 10° S
OTV 4 2.3 21:36:19 10° S 21:37:59 14° SSE 21:37:59 14° SSE
Cosmos 1833 4.3 21:33:01 10° SSW 21:38:45 89° WNW 21:44:27 10° NNE
USA 229 DEB 4.3 21:32:16 10° SW 21:39:07 64° NW 21:46:04 10° NNE
USA 229 4.3 21:32:22 10° SW 21:39:13 65° NW 21:46:11 10° NNE
Cosmos 923 Rocket 4.3 21:34:35 10° N 21:39:40 52° ENE 21:44:04 14° SE
Tiangong 1 1.0 21:37:04 10° SW 21:40:08 61° SSE 21:43:12 10° ENE
Meteor 2-20 4.5 21:39:20 10° S 21:45:30 87° E 21:51:39 10° N
Hubble Space Telescope 2.9 21:44:25 10° S 21:45:05 11° SSE 21:45:05 11° SSE
Cosmos 1939 Rocket 2.8 21:45:33 12° SSE 21:49:08 71° ENE 21:53:02 10° N
H-2A R/B 2.1 21:45:08 11° SSE 21:49:30 77° ENE 21:54:02 10° N
ATLAS CENTAUR R/B 3.9 21:49:14 10° WNW 21:52:00 17° WSW 21:54:38 10° SSW
Cosmos 773 Rocket 4.0 21:47:08 10° NNW 21:52:22 90° NW 21:57:03 13° SSE
Cosmos 1437 Rocket 2.8 21:50:27 10° NNW 21:54:16 76° W 21:57:55 11° S
SPOT 5 3.0 21:53:21 17° SE 21:56:38 52° ENE 22:01:17 10° N
COSMOS 2428 3.7 21:52:46 10° N 21:57:50 32° ENE 22:01:17 18° ESE
NOSS 3-1 (A) 3.6 21:53:18 10° S 21:58:45 45° ESE 22:04:40 10° NE
PSLV R/B 3.6 22:00:36 27° SE 22:01:52 45° ENE 22:04:49 10° N
ARGOS 4.2 21:59:31 18° ESE 22:02:32 29° ENE 22:07:07 10° N
Cosmos 2219 Rocket 3.9 22:02:01 10° NNE 22:05:54 19° ENE 22:08:52 13° E
Cosmos 304 Rocket 3.7 22:01:28 10° NNW 22:06:18 76° ENE 22:09:26 22° SSE
Nadezhda 2 Rocket 4.4 22:02:00 10° S 22:08:06 72° E 22:14:12 10° N
Cosmos 1437 3.7 22:15:01 10° SSW 22:18:11 47° W 22:21:22 10° N
Cosmos 1328 4.0 22:15:24 11° SSW 22:19:07 70° W 22:23:04 10° N
ATLAS 2AS CENTAUR R/B 3.7 22:18:20 23° SE 22:21:09 29° ESE 22:27:35 10° NE
Cosmos 1726 2.9 22:19:15 10° NNE 22:22:45 35° E 22:23:25 33° ESE
Envisat 3.4 22:19:28 15° S 22:23:36 61° W 22:28:38 10° NNW
ERS-1 Rocket 4.4 22:20:16 10° SSW 22:24:47 33° W 22:29:19 10° NNW
Cosmos 2219 3.6 22:21:48 10° SSW 22:27:30 66° WNW 22:33:14 10° NNE
Delta 2 Rocket 2.7 22:27:22 10° W 22:30:57 85° N 22:31:53 45° E
BREEZE M DEB (TANK) 4.3 22:33:48 10° WSW 22:35:24 15° SSW 22:35:24 15° SSW
Cosmos 2237 Rocket 3.7 22:33:06 10° N 22:37:33 23° ENE 22:39:42 19° E
Cosmos 2333 4.5 22:32:18 10° NNW 22:37:56 55° ENE 22:40:15 34° SE
Cosmos 2082 4.3 22:38:00 33° SE 22:39:02 35° ESE 22:44:11 10° NE
Cosmos 2322 4.3 22:34:06 10° NNW 22:39:38 52° WSW 22:43:02 23° S
SL-23 DEB 3.7 22:35:19 10° NW 22:39:52 72° NE 22:40:32 54° ESE
Cosmos 1271 Rocket 3.4 22:36:22 10° N 22:39:56 36° ENE 22:40:05 36° E
Cosmos 2112 Rocket 4.3 22:35:28 10° NNW 22:40:39 63° WSW 22:43:24 28° S
Cosmos 1703 3.5 22:41:15 46° E 22:41:22 47° E 22:45:08 10° NNE
SL-14 R/B 3.2 22:40:06 37° S 22:41:35 85° W 22:45:36 10° N
Cosmos 1937 Rocket 3.4 22:41:23 31° S 22:43:52 64° ESE 22:49:01 10° NNE
Terra 2.9 22:43:25 26° E 22:44:18 28° ENE 22:48:20 10° NNE
NOSS 3-1 (C) 3.9 22:39:37 10° SW 22:45:20 59° NW 22:51:40 10° NNE
Meteor 1-4 Rocket 3.0 22:41:53 10° N 22:45:29 46° ENE 22:45:29 46° ENE
Cosmos 2298 Rocket 4.2 22:40:13 10° SSW 22:45:31 72° WNW 22:50:51 10° NNE
Cosmos 2242 Rocket 3.8 22:41:31 10° N 22:45:55 54° E 22:46:44 47° ESE
Iridium 2 4.2 22:47:14 44° E 22:47:14 44° E 22:50:43 10° NNE
MetOp-B 4.5 22:44:55 25° S 22:47:58 60° W 22:53:17 10° NNW
Meteor 1-27 4.2 22:42:18 10° N 22:47:59 87° W 22:50:34 34° S
Cosmos 2360 Rocket 3.2 22:43:49 10° NW 22:49:04 41° WSW 22:52:21 21° SSW
NOAA 11 4.1 22:47:19 38° SSE 22:49:27 76° ENE 22:54:55 10° N
Sich 1 3.1 22:48:46 34° SSW 22:50:40 77° W 22:55:04 10° N
CARTOSAT-1 4.5 22:51:07 32° E 22:51:27 32° ENE 22:55:18 10° N
USA 245 3.8 22:53:37 35° NW 22:53:37 35° NW 22:55:12 10° NNW
FALCON 9 R/B 4.1 22:21:26 10° W 22:54:00 86° S 23:00:29 16° E
Cosmos 1633 Rocket 3.1 22:52:40 37° SSW 22:54:21 74° W 22:58:44 10° N
Cosmos 990 Rocket 4.0 22:53:45 47° SE 22:54:46 56° ESE 22:59:48 10° NNE
Cosmos 2058 4.3 22:52:03 14° SW 22:55:06 35° W 22:58:54 10° NNW
DELTA 2 R/B (1) 3.7 22:51:23 10° WNW 22:56:51 59° SSW 22:58:07 47° SSE
DELTA 2 DEB (DPAF) 4.2 22:58:34 56° ESE 22:59:12 64° ENE 23:03:39 10° N
Cosmos 1626 3.4 23:01:03 31° NE 23:01:03 31° NE 23:03:30 10° NNE
OAO 2 Rocket 3.3 22:56:11 10° WSW 23:01:29 73° S 23:03:20 41° E
SL-08 RB Rocket 3.7 23:06:50 58° SSW 23:07:38 76° W 23:12:07 10° NNW
H-2A R/B 2.2 23:08:02 50° ESE 23:09:08 61° ENE 23:14:29 10° N
CZ-4 R/B 4.5 23:05:55 10° N 23:10:43 55° WNW 23:13:19 25° SW
Cosmos 2227 Rocket 2.0 23:11:30 46° S 23:13:12 76° ESE 23:18:52 10° NNE
YAOGAN 6 4.3 23:12:45 23° WSW 23:13:27 25° W 23:16:29 10° NW
Tiangong 1 3.0 23:14:08 10° WNW 23:16:52 28° NNW 23:17:12 27° N
Cosmos 1300 4.3 23:13:46 10° NNW 23:17:05 28° W 23:17:53 26° WSW
Cosmos 1241 Rocket 4.5 23:22:14 22° SW 23:26:21 78° WNW 23:32:38 10° NNE
IGS 5A 3.6 23:29:10 67° NNE 23:29:10 67° NNE 23:32:53 10° N
Cosmos 2333 Rocket 2.1 23:24:45 10° NNW 23:30:31 73° ENE 23:31:18 63° ESE
SeaSat 1 4.4 23:29:32 17° ENE 23:30:35 18° NE 23:33:48 10° NNE
SL-16 R/B 3.5 23:26:15 10° N 23:31:04 27° ENE 23:32:01 26° ENE
Cosmos 1125 Rocket 3.9 23:33:30 49° ENE 23:33:30 49° ENE 23:38:03 10° NNE
Cosmos 1455 3.1 23:36:00 10° N 23:38:49 47° NNW 23:38:49 47° NNW
Cosmos 2297 Rocket 2.1 23:39:28 68° SSW 23:40:14 89° E 23:45:56 10° NNE
Nadezhda 1 Rocket 4.0 23:34:53 10° N 23:40:57 73° W 23:42:17 55° SSW
COSMOS 2428 3.9 23:37:04 10° NW 23:41:58 30° WSW 23:43:18 27° SW
ARGOS 4.5 23:41:02 26° SW 23:42:38 31° W 23:47:23 10° NW
Cosmos 2219 Rocket 2.4 23:44:43 10° NNW 23:50:11 55° WSW 23:50:35 54° SW
